Temp
69 70 72 71 73 52 59 61 56 59 63 60 50 53 54 53 49 47 54 51 54 59 62 63 63 65 66 68 69 70 70 71 72 72 71 70 72 73 74 75 75 76 77 78 78 78 78 79 78 78 77 77 77 76 76 75 76 76 76 76 76 76 76
68 71 74 74 72 68 62 55 60 64 67 62 53 42 43 40 42 45 50 47 47 52 49 61 60 62 64 65 67 69 69 70 70 72 72 72 71 73 75 76 76 77 78 78 79 79 79 79 79 78 77 78 78 77 77 76 76 75 76 77 77 76 76
67 69 72 68 74 72 66 61 69 60 50 52 52 49 39 40 40 40 44 47 48 50 51 56 58 60 61 63 66 66 66 68 69 71 73 72 72 73 74 75 76 77 77 78 78 79 80 80 79 79 79 79 79 78 78 78 76 77 77 78 78 78 77
64 62 63 54 59 70 70 69 67 61 53 46 49 48 48 46 39 43 44 46 43 52 55 58 60 62 62 63 63 64 67 68 69 71 72 71 71 72 74 74 75 76 78 78 78 79 79 79 79 79 79 79 79 79 78 78 78 78 77 78 77 77 78
63 59 55 53 56 59 62 61 54 62 58 59 58 55 52 43 41 39 38 41 43 51 57 60 62 63 64 64 64 65 67 68 70 71 71 70 71 71 72 74 72 72 73 75 78 80 80 80 80 79 79 78 78 79 78 78 77 77 77 78 78 77 78
46 55 59 64 63 63 60 59 56 56 53 56 51 45 55 51 43 37 41 40 43 54 61 62 62 64 65 66 66 66 67 68 69 69 68 68 69 70 71 71 74 73 71 73 74 74 77 78 78 78 78 79 78 78 78 78 77 77 77 77 78 77 78
58 63 67 66 68 67 63 65 63 60 55 52 41 41 48 52 51 52 44 45 46 54 59 60 61 63 66 66 67 66 67 68 67 66 67 67 68 69 70 70 73 72 71 72 73 74 74 77 77 78 77 78 78 78 78 78 77 76 78 78 78 77 77
53 60 63 65 67 68 63 61 59 62 58 56 55 46 49 49 51 48 46 45 44 53 59 60 61 63 65 65 66 66 67 67 66 66 66 66 67 68 68 69 70 72 71 70 71 72 73 73 74 76 77 77 78 78 78 78 77 77 78 78 78 77 77
42 51 54 59 65 63 58 61 60 61 60 60 57 54 50 50 51 48 47 40 42 53 59 59 61 63 64 64 65 66 65 66 67 66 66 66 67 67 68 68 68 69 69 70 71 71 70 69 70 71 73 76 77 77 77 77 77 78 78 78 77 77 77
35 37 38 43 49 54 56 62 62 62 61 58 58 54 52 46 48 50 45 42 43 51 56 59 59 61 61 63 65 65 67 66 67 66 66 66 67 67 68 68 68 68 69 70 70 70 70 70 71 70 70 71 75 77 77 78 77 77 77 77 77 77 77
41 48 45 51 57 54 54 59 59 60 60 58 54 47 47 47 42 51 47 48 48 53 55 57 58 59 60 62 63 64 64 65 67 67 67 67 67 67 68 68 68 68 68 69 69 70 70 70 71 71 71 70 71 74 76 77 78 77 77 77 77 77 77
55 53 53 61 61 56 56 56 56 59 58 56 55 55 47 48 51 44 47 48 53 53 55 56 57 58 59 60 62 63 64 65 66 66 66 68 67 67 67 68 68 68 68 68 69 69 69 69 70 70 70 70 69 69 71 75 77 76 77 76 76 76 77
58 59 59 60 61 58 57 57 57 57 58 58 55 52 52 53 52 51 49 51 52 52 56 57 59 60 60 61 62 63 64 65 65 65 66 66 66 66 67 67 67 68 68 68 68 69 69 69 69 69 69 70 70 71 71 70 73 76 75 75 75 76 76
57 58 59 60 58 58 58 57 58 58 58 57 57 56 55 54 49 52 50 51 51 55 56 58 59 61 61 61 63 64 64 64 64 65 65 66 65 66 66 67 68 68 68 69 69 69 69 69 69 69 69 70 70 71 71 71 70 73 74 75 75 75 75
54 57 59 59 58 57 55 57 58 58 58 58 57 56 55 56 53 54 53 52 51 56 58 60 61 62 62 63 63 63 63 64 65 65 65 65 65 66 66 65 67 68 68 69 69 69 69 69 69 70 69 70 70 71 71 71 71 71 73 74 74 73 71
48 54 56 57 56 56 55 55 56 55 55 53 54 52 55 51 50 51 52 51 50 56 60 61 61 62 62 61 62 63 63 65 65 65 65 65 65 66 66 66 66 66 67 68 69 69 69 70 70 70 70 70 70 70 71 71 71 71 71 72 71 70 69
43 54 55 52 51 50 46 49 54 55 55 55 57 57 58 56 54 50 49 51 56 58 60 60 60 61 62 63 63 63 64 64 64 65 65 65 65 65 65 66 66 66 67 67 68 68 69 70 70 70 70 70 70 70 69 68 69 69 70 71 71 70 70
44 52 53 50 43 37 38 50 58 57 55 55 52 52 54 57 58 54 56 57 60 59 59 59 60 60 61 62 63 65 65 64 64 65 66 66 65 65 65 65 65 65 66 66 67 68 68 68 69 70 70 70 70 70 69 70 69 69 69 69 70 70 70
45 49 47 44 37 37 46 54 58 60 60 58 54 54 55 56 58 59 58 59 59 59 60 61 62 63 64 65 65 65 67 66 65 65 65 65 64 64 64 64 64 64 65 67 67 68 68 69 69 69 69 70 69 69 69 69 69 69 69 69 68 69 69
46 44 42 36 35 47 55 56 57 62 59 59 55 54 55 56 58 59 57 59 61 61 62 63 63 63 63 65 65 65 66 66 65 65 64 65 64 63 63 63 63 63 63 65 68 67 69 69 69 69 69 69 69 69 69 69 69 69 69 68 68 68 68
44 43 38 44 47 53 52 53 55 56 52 53 51 47 50 55 57 58 57 58 59 60 60 60 60 63 63 60 61 65 65 65 65 65 66 66 65 65 64 64 63 63 64 64 65 67 67 68 68 68 69 70 69 69 69 69 69 69 69 68 68 68 68
45 39 39 39 39 39 44 50 56 61 62 60 57 52 49 57 58 59 58 57 58 59 60 61 62 64 60 56 57 63 65 65 64 65 64 65 66 66 66 65 64 64 64 65 66 66 66 67 67 68 68 69 69 69 69 69 69 68 68 68 68 68 68
43 41 37 34 34 38 43 51 57 60 60 60 56 53 46 55 57 58 59 58 58 58 58 58 60 57 53 53 57 62 63 63 64 64 65 66 66 66 67 66 65 65 65 66 66 66 67 66 66 67 68 68 68 68 68 68 68 68 68 68 68 68 69
40 36 35 37 37 44 52 53 57 60 60 60 54 41 41 51 57 58 58 57 57 57 58 59 56 54 51 53 58 63 62 63 64 64 64 65 66 66 67 67 67 67 67 67 66 65 65 65 67 67 68 67 67 66 67 67 67 67 67 67 68 69 69
42 42 37 38 43 50 52 54 58 59 59 54 44 36 45 53 56 57 57 58 58 58 57 56 54 56 57 59 62 64 63 63 63 65 67 67 67 66 67 67 68 67 67 67 66 66 66 67 68 68 67 66 65 66 66 67 66 66 66 67 67 68 68
40 36 36 41 39 45 54 57 57 56 56 45 39 47 54 55 55 56 56 57 58 58 57 56 56 58 61 63 63 63 63 61 61 64 66 67 68 69 69 69 68 67 67 67 67 68 68 68 69 68 67 65 65 65 64 64 64 65 66 66 66 67 67
39 36 36 36 37 50 58 56 56 55 48 44 48 54 56 57 55 55 56 56 57 58 57 59 59 61 62 63 63 63 62 62 62 63 65 65 65 65 65 65 67 66 64 65 65 66 68 68 68 68 67 65 65 65 63 63 64 65 66 66 66 66 66
36 32 34 36 43 47 57 52 48 52 53 55 54 54 54 56 56 55 55 56 57 59 59 59 58 59 60 61 62 61 61 62 61 62 62 62 63 64 65 65 64 64 62 63 64 65 66 67 68 68 67 65 65 64 63 65 66 66 66 66 66 66 66
41 38 37 46 47 51 55 55 55 55 56 55 56 56 56 56 55 55 55 56 58 59 59 58 58 58 59 60 61 61 60 61 60 61 60 60 61 61 61 62 63 62 61 61 62 62 64 64 65 66 67 66 66 64 65 67 66 66 66 67 67 66 66
52 51 51 55 54 54 56 58 57 57 57 57 57 57 55 55 56 56 57 57 58 59 58 58 57 58 58 59 59 60 60 60 59 60 60 60 60 60 60 59 61 60 60 61 61 61 61 62 63 64 65 66 65 63 65 66 65 66 66 66 65 65 66
41 41 48 52 55 54 55 56 58 58 57 56 56 56 55 56 57 58 59 59 58 59 58 58 58 58 59 58 58 59 59 60 60 60 59 59 59 59 58 58 59 58 58 59 59 60 59 59 61 63 63 64 64 64 65 65 65 65 65 66 66 65 64
40 43 50 54 54 55 55 54 54 55 55 57 57 56 57 57 58 59 59 59 59 59 58 58 59 58 58 58 57 58 60 60 60 59 59 58 59 58 57 58 57 56 56 56 57 57 57 57 58 60 60 60 61 62 63 65 64 65 65 65 63 63 64
50 52 53 53 54 55 55 55 54 55 55 55 56 57 58 59 59 59 59 59 58 59 58 58 58 57 57 57 57 57 58 59 59 59 58 58 57 57 57 57 57 56 55 55 55 56 56 56 57 57 58 59 60 60 61 62 63 65 65 66 63 62 63
43 45 50 51 49 48 53 55 55 56 56 57 56 57 58 58 59 59 59 59 59 59 59 58 58 57 56 57 57 57 57 58 58 58 58 58 58 57 56 57 56 57 56 56 56 56 55 55 56 57 57 58 58 60 60 60 61 64 64 63 61 61 61
46 49 52 50 50 49 51 54 56 56 56 57 57 56 56 57 58 58 59 58 58 59 59 59 59 58 58 57 58 58 56 57 58 58 59 59 58 58 57 57 55 55 55 57 56 56 55 56 57 57 57 57 58 59 58 59 60 59 60 61 61 61 62
51 54 54 53 51 51 55 55 56 56 56 58 57 56 57 57 58 58 59 59 58 57 58 59 59 59 59 58 60 58 57 58 57 58 58 59 59 59 58 58 56 56 56 56 56 56 55 56 56 57 57 57 57 59 57 57 58 58 59 60 58 59 59
55 53 55 53 53 55 55 55 56 56 58 59 58 57 57 58 59 60 59 59 59 60 58 58 58 58 59 58 59 59 58 58 59 59 60 60 60 59 58 58 57 56 56 57 55 55 55 55 56 57 57 58 58 59 58 58 58 58 58 58 57 56 59
MSLP
1008.38 1008.26 1008.66 1009.62 1008.86 1015.06 1013.70 1014.86 1016.46 1012.98 1011.34 1012.46 1016.74 1017.22 1017.78 1018.22 1019.10 1020.38 1018.14 1018.10 1016.26 1014.14 1013.98 1013.22 1013.06 1012.94 1012.86 1012.70 1012.82 1012.86 1013.02 1012.98 1013.22 1013.58 1013.94 1014.18 1014.10 1013.98 1013.90 1014.06 1014.14 1014.22 1014.26 1014.38 1014.42 1014.70 1014.98 1015.18 1015.46 1015.62 1015.70 1015.82 1016.14 1016.46 1016.82 1017.10 1017.22 1017.34 1017.50 1017.58 1017.70 1017.74 1017.90
1008.30 1007.34 1007.58 1008.82 1008.58 1008.74 1012.50 1015.94 1013.22 1011.50 1011.10 1011.94 1014.22 1019.38 1019.10 1019.22 1020.22 1018.98 1018.98 1018.54 1017.54 1017.14 1016.66 1013.98 1014.02 1013.70 1013.58 1013.34 1013.06 1012.86 1012.94 1012.98 1013.34 1013.10 1013.18 1013.62 1013.86 1013.70 1013.42 1013.38 1013.50 1013.62 1013.86 1014.14 1014.26 1014.34 1014.46 1014.74 1015.02 1015.26 1015.42 1015.50 1015.74 1016.02 1016.34 1016.82 1017.10 1017.34 1017.34 1017.46 1017.62 1017.70 1017.86
1008.82 1008.26 1008.14 1010.06 1008.54 1008.34 1010.38 1010.78 1008.98 1012.22 1016.22 1016.06 1015.34 1016.62 1021.18 1020.66 1020.02 1019.02 1019.34 1018.14 1017.58 1016.62 1015.58 1015.38 1014.82 1014.10 1014.02 1013.70 1013.10 1013.34 1013.54 1013.34 1013.14 1012.82 1012.74 1013.06 1013.30 1013.50 1013.62 1013.62 1013.66 1013.74 1013.86 1013.98 1014.06 1014.22 1014.26 1014.34 1014.46 1014.70 1014.98 1015.22 1015.58 1015.86 1016.06 1016.30 1016.70 1016.78 1016.98 1017.10 1017.30 1017.42 1017.54
1009.50 1009.02 1009.62 1014.22 1011.70 1009.10 1008.46 1008.90 1010.30 1010.70 1011.22 1013.90 1016.22 1014.94 1015.62 1015.82 1018.74 1019.46 1018.22 1018.34 1016.86 1014.58 1013.54 1013.10 1013.58 1013.42 1013.18 1013.46 1013.50 1013.22 1012.78 1012.62 1012.58 1012.50 1012.58 1012.94 1013.26 1013.34 1013.38 1013.42 1013.50 1013.54 1013.54 1013.62 1013.82 1014.06 1014.30 1014.46 1014.66 1014.70 1014.94 1015.14 1015.54 1015.70 1016.02 1016.30 1016.42 1016.62 1016.86 1017.10 1017.22 1017.46 1017.46
1009.58 1011.82 1010.54 1011.50 1011.06 1011.78 1011.18 1011.46 1011.98 1011.14 1011.50 1011.86 1012.02 1014.06 1014.34 1014.86 1017.18 1018.06 1018.06 1017.98 1015.42 1012.42 1012.06 1012.02 1012.54 1012.58 1012.50 1012.62 1013.06 1012.86 1012.66 1012.46 1012.22 1012.14 1012.34 1012.66 1012.82 1013.14 1013.18 1013.26 1013.42 1013.62 1013.82 1013.94 1013.86 1013.70 1013.78 1013.98 1014.18 1014.46 1014.82 1015.14 1015.30 1015.54 1015.94 1016.14 1016.54 1016.74 1016.90 1016.90 1017.06 1017.22 1017.30
1011.94 1011.18 1009.38 1009.66 1010.02 1009.14 1010.34 1010.98 1011.74 1011.18 1012.86 1013.50 1015.14 1016.06 1014.54 1014.50 1015.26 1017.10 1017.94 1017.46 1013.54 1011.70 1012.42 1010.94 1011.82 1011.78 1011.94 1011.82 1011.98 1012.42 1012.42 1012.42 1012.38 1012.38 1012.62 1012.66 1012.86 1013.02 1012.94 1012.98 1013.10 1013.50 1013.58 1013.66 1013.94 1014.18 1014.10 1014.18 1014.46 1014.70 1014.78 1014.98 1015.34 1015.58 1015.74 1015.98 1016.30 1016.54 1016.70 1016.82 1016.90 1017.02 1017.14
1011.50 1010.38 1009.26 1009.14 1008.82 1008.42 1009.78 1010.06 1010.42 1010.66 1010.90 1011.86 1013.54 1016.58 1015.50 1015.02 1015.26 1015.42 1015.90 1016.38 1013.78 1012.90 1012.26 1011.74 1011.82 1011.82 1011.66 1011.66 1011.82 1012.30 1012.26 1012.30 1012.46 1012.70 1012.74 1012.86 1012.70 1013.02 1012.86 1012.70 1013.02 1013.46 1013.58 1013.54 1013.74 1014.02 1014.46 1014.62 1014.46 1014.54 1014.82 1015.06 1015.26 1015.38 1015.62 1015.82 1016.18 1016.38 1016.34 1016.46 1016.58 1016.78 1017.02
1011.02 1010.26 1010.06 1008.94 1008.98 1008.90 1010.14 1010.18 1010.14 1011.14 1011.46 1010.82 1011.42 1011.94 1012.58 1013.82 1015.34 1015.54 1016.26 1016.22 1013.82 1012.78 1012.30 1012.14 1011.98 1011.86 1011.66 1011.66 1011.78 1012.10 1012.38 1012.50 1012.90 1013.10 1013.18 1013.06 1013.14 1013.14 1013.06 1012.78 1013.06 1013.30 1013.58 1013.66 1013.82 1014.18 1014.42 1014.70 1015.02 1014.94 1014.78 1014.94 1015.10 1015.30 1015.46 1015.66 1016.02 1016.10 1016.22 1016.30 1016.42 1016.70 1016.94
1012.86 1011.94 1010.34 1010.14 1009.66 1010.26 1012.34 1012.54 1011.18 1011.38 1010.78 1011.02 1011.78 1011.94 1013.06 1013.70 1015.02 1014.26 1015.10 1017.66 1013.14 1013.02 1012.50 1012.34 1012.14 1012.14 1012.10 1012.26 1012.10 1011.94 1012.58 1012.86 1012.94 1013.14 1013.30 1013.22 1013.06 1013.10 1013.14 1013.22 1013.38 1013.70 1013.86 1013.82 1013.98 1014.26 1014.62 1014.78 1015.02 1015.50 1015.74 1015.34 1015.14 1015.30 1015.42 1015.58 1015.66 1015.70 1015.90 1016.02 1016.34 1016.58 1016.82
1018.98 1019.30 1018.54 1017.30 1014.90 1013.46 1012.34 1011.94 1012.18 1011.94 1011.62 1010.30 1011.22 1013.42 1013.70 1014.66 1014.46 1015.22 1014.82 1014.14 1012.70 1013.54 1012.98 1012.98 1012.78 1012.58 1012.70 1012.54 1012.34 1012.18 1012.10 1012.54 1013.06 1013.18 1013.30 1013.26 1013.26 1013.18 1013.26 1013.38 1013.54 1013.86 1013.94 1013.90 1014.02 1014.34 1014.50 1014.58 1014.62 1014.78 1015.54 1016.50 1015.86 1015.18 1015.18 1015.14 1015.42 1015.62 1015.78 1015.86 1016.10 1016.42 1016.66
1017.54 1015.94 1014.82 1013.18 1013.42 1013.34 1014.54 1013.78 1013.54 1013.14 1012.30 1012.26 1011.02 1011.94 1013.78 1014.50 1014.62 1014.94 1013.18 1012.30 1012.50 1013.70 1013.38 1013.78 1013.58 1013.10 1013.02 1013.10 1012.90 1012.78 1012.86 1012.78 1012.74 1012.98 1013.10 1013.30 1013.46 1013.66 1013.62 1013.74 1013.66 1013.74 1014.10 1014.30 1014.10 1014.10 1014.18 1014.42 1014.54 1014.78 1014.98 1015.66 1016.74 1016.14 1015.38 1015.10 1015.10 1015.30 1015.50 1015.78 1016.02 1016.30 1016.54
1014.54 1013.94 1014.06 1013.18 1013.06 1014.62 1014.94 1014.82 1014.82 1013.50 1013.34 1012.94 1011.70 1011.74 1012.30 1012.22 1013.78 1015.30 1012.30 1013.14 1012.58 1011.62 1012.94 1013.74 1013.70 1013.42 1013.18 1013.14 1013.02 1012.86 1012.78 1012.82 1012.98 1013.14 1013.30 1013.22 1013.54 1013.50 1013.50 1013.70 1013.78 1013.94 1014.02 1014.22 1014.22 1014.10 1014.22 1014.54 1014.74 1015.06 1015.38 1015.42 1015.78 1016.94 1016.90 1015.74 1015.14 1015.26 1015.34 1015.62 1015.90 1016.18 1016.42
1014.82 1014.02 1013.54 1013.18 1013.30 1014.10 1014.50 1014.62 1014.46 1014.54 1013.86 1013.50 1013.58 1014.38 1014.02 1013.06 1012.14 1013.22 1010.98 1012.90 1012.58 1012.70 1013.46 1013.42 1013.26 1013.10 1013.06 1013.18 1013.14 1012.90 1012.70 1012.78 1013.02 1013.46 1013.62 1013.74 1013.70 1013.66 1013.62 1013.70 1013.74 1013.90 1014.14 1014.22 1014.30 1014.18 1014.22 1014.58 1014.98 1015.18 1015.30 1015.50 1015.70 1015.86 1016.26 1016.94 1016.26 1015.14 1015.10 1015.38 1015.78 1016.06 1016.30
1014.50 1014.18 1013.74 1013.54 1013.94 1013.94 1013.82 1014.50 1014.66 1014.46 1014.18 1014.46 1014.26 1014.26 1013.82 1013.70 1013.26 1012.26 1012.34 1013.46 1013.34 1013.82 1013.46 1013.14 1013.06 1012.78 1012.90 1013.10 1012.90 1012.94 1013.10 1013.30 1013.30 1013.42 1013.66 1013.86 1013.98 1013.94 1013.86 1013.86 1013.86 1013.94 1014.06 1014.18 1014.30 1014.26 1014.22 1014.38 1014.66 1014.98 1015.30 1015.30 1015.50 1015.74 1015.58 1015.58 1016.74 1016.14 1015.10 1015.30 1015.62 1015.98 1016.30
1014.58 1014.10 1013.90 1013.74 1013.86 1014.34 1014.62 1014.42 1014.34 1014.38 1014.42 1014.22 1014.70 1014.82 1014.74 1014.14 1013.90 1014.46 1013.98 1013.26 1013.94 1013.98 1013.50 1013.54 1013.30 1012.98 1013.02 1013.22 1013.50 1013.70 1013.66 1013.62 1013.66 1013.78 1013.94 1014.02 1014.10 1014.10 1014.10 1014.14 1014.06 1013.86 1013.86 1014.06 1014.30 1014.46 1014.50 1014.38 1014.50 1014.78 1014.98 1015.02 1015.18 1015.42 1015.42 1015.34 1015.50 1016.34 1015.74 1015.22 1015.58 1016.02 1016.58
1016.02 1014.22 1014.86 1014.10 1013.66 1014.02 1014.42 1015.10 1015.02 1015.06 1015.22 1015.78 1015.66 1016.38 1016.14 1016.10 1015.86 1014.82 1014.38 1014.26 1015.34 1014.62 1013.86 1013.74 1013.66 1013.66 1013.94 1014.22 1014.26 1014.14 1014.06 1013.94 1013.98 1014.10 1014.14 1014.18 1014.18 1014.14 1014.14 1014.22 1014.26 1014.26 1014.14 1014.18 1014.14 1014.30 1014.46 1014.38 1014.50 1014.66 1014.86 1014.90 1015.06 1015.18 1015.42 1015.74 1015.94 1016.46 1016.34 1015.46 1015.58 1015.94 1016.14
1017.22 1014.54 1014.86 1014.82 1013.90 1014.06 1015.18 1016.54 1015.94 1015.78 1015.74 1016.02 1015.58 1015.38 1015.34 1015.82 1015.74 1015.10 1015.42 1016.14 1015.26 1014.38 1013.82 1014.10 1014.34 1014.26 1014.42 1014.50 1014.50 1014.46 1014.34 1014.26 1014.18 1014.26 1014.26 1014.26 1014.34 1014.42 1014.42 1014.42 1014.50 1014.50 1014.50 1014.62 1014.90 1014.90 1014.62 1014.54 1014.70 1014.62 1014.50 1014.74 1014.90 1015.10 1015.54 1015.62 1015.46 1016.18 1016.82 1016.14 1015.58 1015.78 1015.86
1016.46 1015.18 1015.58 1015.22 1015.26 1017.70 1018.78 1015.06 1014.78 1015.10 1016.14 1015.94 1016.30 1017.34 1017.06 1016.02 1015.42 1015.78 1015.46 1015.22 1014.70 1014.46 1014.42 1014.54 1014.74 1014.86 1015.10 1014.94 1014.66 1014.18 1014.34 1014.58 1014.58 1014.42 1014.42 1014.50 1014.54 1014.62 1014.66 1014.78 1014.74 1014.62 1014.58 1014.58 1014.62 1014.78 1014.94 1014.94 1014.86 1014.94 1015.14 1015.10 1014.98 1015.06 1015.10 1015.30 1015.54 1015.62 1016.30 1017.18 1016.42 1015.78 1015.82
1016.18 1015.98 1015.90 1015.90 1018.30 1018.34 1015.10 1013.94 1013.86 1014.18 1014.58 1015.38 1016.66 1016.94 1016.82 1016.82 1015.98 1015.66 1015.46 1015.06 1014.90 1014.86 1014.66 1014.54 1014.62 1014.74 1014.74 1014.58 1014.74 1014.62 1014.30 1014.30 1014.54 1014.74 1014.66 1014.66 1014.62 1014.74 1014.98 1015.02 1014.94 1014.82 1014.66 1014.38 1014.14 1014.10 1014.26 1014.46 1014.74 1015.02 1015.22 1015.30 1015.34 1015.34 1015.38 1015.62 1015.66 1015.58 1015.78 1016.82 1017.58 1016.70 1015.98
1015.98 1016.86 1017.30 1019.30 1018.30 1015.94 1014.94 1014.26 1014.26 1013.82 1014.10 1014.78 1015.38 1015.86 1017.10 1017.22 1016.70 1016.14 1015.98 1015.50 1015.18 1014.98 1015.02 1014.74 1014.50 1014.58 1014.54 1014.46 1014.78 1014.98 1014.78 1014.58 1014.70 1014.82 1014.94 1014.82 1014.82 1014.94 1014.94 1014.82 1015.18 1015.10 1014.86 1014.42 1014.18 1014.06 1013.90 1014.14 1014.58 1014.82 1014.94 1014.98 1015.14 1015.30 1015.38 1015.66 1015.82 1015.74 1015.94 1016.62 1017.58 1017.58 1016.42
1016.38 1017.78 1017.86 1018.06 1016.70 1016.10 1015.18 1014.94 1015.38 1015.66 1016.42 1016.18 1016.62 1017.46 1017.42 1017.46 1016.94 1016.42 1016.38 1016.02 1015.78 1015.58 1015.74 1015.98 1015.74 1015.14 1014.98 1015.50 1015.94 1015.26 1015.34 1015.30 1015.06 1015.02 1014.98 1014.82 1014.94 1014.94 1014.98 1014.90 1014.98 1014.74 1014.54 1014.58 1014.50 1014.38 1014.46 1014.62 1014.66 1014.86 1014.90 1014.90 1014.94 1015.10 1015.30 1015.50 1015.70 1015.94 1016.06 1016.46 1017.34 1017.58 1016.42
1016.46 1017.10 1018.82 1018.58 1018.50 1019.54 1017.06 1015.70 1015.22 1014.86 1014.78 1014.98 1015.26 1016.10 1017.30 1016.58 1016.62 1016.10 1015.74 1015.94 1015.74 1015.74 1015.58 1015.66 1015.50 1014.94 1015.66 1017.22 1017.26 1016.18 1015.74 1015.58 1015.58 1015.30 1015.26 1015.14 1015.10 1014.98 1014.98 1014.90 1014.82 1014.74 1014.66 1014.58 1014.46 1014.46 1014.66 1014.74 1014.82 1014.82 1014.82 1014.98 1014.94 1015.06 1015.38 1015.62 1015.90 1016.10 1016.22 1016.50 1016.86 1016.94 1016.38
1016.66 1017.18 1017.98 1019.10 1019.30 1017.90 1017.06 1016.22 1015.34 1014.90 1014.78 1015.14 1015.42 1016.02 1017.50 1016.50 1016.38 1016.10 1015.46 1015.94 1015.86 1015.86 1015.98 1015.82 1015.18 1014.54 1015.66 1016.62 1016.46 1015.82 1015.70 1015.82 1015.70 1015.78 1015.58 1015.42 1015.34 1015.30 1015.22 1015.18 1015.14 1014.90 1014.82 1014.74 1014.66 1014.58 1014.30 1014.34 1014.58 1014.58 1014.66 1014.74 1014.94 1015.30 1015.54 1015.86 1016.02 1016.18 1016.30 1016.50 1016.62 1016.62 1016.50
1017.06 1017.10 1017.74 1018.30 1017.90 1017.70 1016.50 1015.94 1015.38 1015.02 1014.70 1014.86 1015.34 1018.02 1018.18 1015.94 1016.34 1015.94 1015.50 1015.50 1015.54 1015.50 1015.66 1015.38 1015.22 1015.14 1015.42 1015.42 1016.06 1015.50 1015.58 1015.66 1015.70 1015.82 1015.94 1015.82 1015.66 1015.58 1015.46 1015.30 1015.18 1015.14 1014.94 1014.86 1014.94 1014.94 1014.78 1014.82 1014.74 1014.74 1014.66 1014.86 1015.18 1015.50 1015.78 1015.94 1016.14 1016.26 1016.42 1016.50 1016.50 1016.42 1016.46
1017.58 1016.94 1018.78 1018.86 1017.86 1016.50 1016.02 1015.62 1015.26 1014.94 1014.74 1014.70 1017.06 1019.02 1016.42 1015.38 1016.06 1015.74 1015.54 1015.10 1015.02 1015.14 1015.50 1015.66 1015.70 1015.18 1014.94 1014.78 1015.18 1015.26 1015.50 1015.70 1015.82 1015.66 1015.62 1015.70 1015.66 1015.78 1015.74 1015.62 1015.38 1015.34 1015.22 1015.18 1015.22 1015.22 1015.26 1015.06 1014.98 1015.02 1015.10 1015.38 1015.74 1015.82 1015.90 1016.22 1016.54 1016.54 1016.42 1016.34 1016.30 1016.42 1016.58
1016.70 1017.94 1017.78 1018.42 1018.26 1016.38 1015.86 1015.30 1015.58 1015.10 1015.18 1017.10 1017.30 1015.50 1015.22 1015.22 1015.42 1015.70 1015.62 1015.62 1015.38 1015.18 1014.94 1015.38 1015.70 1015.42 1015.30 1015.10 1015.26 1015.50 1015.62 1015.78 1015.94 1015.86 1015.86 1015.82 1015.82 1015.66 1015.62 1015.62 1015.62 1015.66 1015.58 1015.54 1015.42 1015.30 1015.22 1015.22 1015.26 1015.34 1015.42 1015.78 1016.02 1016.06 1016.26 1016.70 1016.78 1016.54 1016.42 1016.42 1016.54 1016.74 1016.94
1018.54 1018.26 1018.30 1018.58 1018.62 1016.42 1015.42 1015.78 1015.14 1014.98 1015.74 1015.66 1015.58 1015.46 1015.10 1015.10 1015.06 1015.74 1015.90 1015.54 1015.46 1015.38 1015.42 1015.42 1015.38 1015.42 1015.46 1015.54 1015.78 1015.90 1015.82 1015.94 1016.14 1016.18 1016.18 1016.30 1016.30 1016.30 1016.26 1016.22 1015.98 1015.94 1016.06 1016.02 1015.94 1015.78 1015.58 1015.54 1015.54 1015.62 1015.66 1015.94 1016.14 1016.30 1016.58 1016.82 1016.70 1016.50 1016.50 1016.58 1016.70 1016.86 1017.06
1017.26 1018.38 1017.58 1017.82 1016.90 1016.50 1015.50 1015.74 1015.50 1016.06 1015.66 1015.18 1015.22 1015.18 1015.14 1015.10 1015.14 1015.54 1015.70 1015.62 1015.42 1015.38 1015.42 1015.54 1015.70 1015.62 1015.58 1015.74 1015.98 1016.26 1016.34 1016.42 1016.46 1016.38 1016.46 1016.46 1016.42 1016.46 1016.46 1016.50 1016.58 1016.46 1016.50 1016.42 1016.34 1016.18 1016.02 1015.90 1015.86 1015.78 1015.82 1016.22 1016.42 1016.66 1016.94 1016.74 1016.46 1016.34 1016.62 1016.74 1016.90 1017.26 1017.50
1017.06 1016.58 1016.90 1016.66 1015.98 1016.06 1015.74 1015.58 1015.74 1015.74 1015.34 1015.02 1014.86 1014.90 1014.82 1015.26 1015.14 1015.06 1015.46 1015.58 1015.38 1015.18 1015.34 1015.62 1015.62 1015.78 1015.78 1015.86 1016.02 1016.46 1016.74 1016.78 1016.90 1016.90 1016.90 1016.86 1016.82 1016.82 1016.90 1017.02 1016.90 1016.90 1016.94 1016.90 1016.74 1016.66 1016.50 1016.38 1016.26 1016.18 1016.06 1016.22 1016.54 1016.94 1016.98 1016.78 1016.90 1016.74 1016.98 1017.18 1017.34 1017.62 1017.78
1016.54 1016.38 1016.10 1015.98 1015.90 1015.98 1015.90 1015.58 1015.34 1015.38 1015.38 1015.14 1015.06 1014.94 1015.22 1015.26 1015.18 1015.14 1015.34 1015.62 1015.46 1015.42 1015.42 1015.54 1015.90 1015.90 1016.06 1015.94 1016.06 1015.82 1016.10 1016.70 1016.94 1016.98 1017.10 1017.10 1017.06 1017.06 1017.14 1017.22 1017.26 1017.26 1017.22 1017.14 1017.10 1017.14 1017.06 1016.86 1016.70 1016.58 1016.54 1016.50 1016.82 1017.10 1016.98 1016.98 1017.06 1017.18 1017.30 1017.58 1017.70 1017.78 1017.90
1016.98 1018.02 1016.30 1016.26 1016.34 1016.18 1016.06 1015.90 1015.74 1015.50 1015.34 1015.34 1015.30 1015.26 1015.26 1015.30 1015.26 1015.22 1015.22 1015.38 1015.46 1015.50 1015.62 1015.74 1015.90 1016.30 1016.30 1016.58 1016.86 1016.54 1016.06 1016.70 1017.02 1017.22 1017.34 1017.38 1017.30 1017.34 1017.46 1017.58 1017.50 1017.58 1017.62 1017.62 1017.58 1017.50 1017.50 1017.34 1017.18 1017.10 1017.06 1017.06 1017.14 1017.14 1017.18 1017.22 1017.30 1017.38 1017.58 1017.62 1017.70 1017.86 1018.06
1017.18 1017.26 1016.54 1016.42 1016.26 1016.18 1015.98 1015.94 1015.86 1015.82 1015.82 1015.66 1015.50 1015.46 1015.42 1015.34 1015.22 1015.22 1015.38 1015.30 1015.54 1015.54 1015.90 1016.02 1016.10 1016.50 1016.54 1016.70 1016.90 1016.90 1016.90 1017.10 1017.34 1017.46 1017.46 1017.42 1017.42 1017.50 1017.54 1017.66 1017.70 1017.82 1017.90 1017.94 1017.90 1017.78 1017.82 1017.70 1017.58 1017.50 1017.46 1017.42 1017.34 1017.30 1017.34 1017.38 1017.46 1017.62 1017.78 1017.90 1017.98 1018.06 1018.10
1017.30 1016.66 1016.46 1016.30 1015.82 1015.90 1016.14 1016.02 1016.06 1016.10 1016.02 1015.94 1015.78 1015.62 1015.50 1015.38 1015.46 1015.54 1015.54 1015.54 1015.66 1015.78 1016.10 1016.10 1016.22 1016.50 1016.78 1016.82 1016.82 1017.02 1017.30 1017.50 1017.66 1017.62 1017.50 1017.42 1017.42 1017.54 1017.58 1017.74 1017.74 1017.90 1018.06 1018.18 1018.14 1018.02 1018.02 1017.90 1017.78 1017.78 1017.78 1017.70 1017.66 1017.62 1017.66 1017.66 1017.66 1017.86 1018.14 1018.26 1018.34 1018.50 1018.54
1017.90 1017.42 1016.78 1016.18 1016.78 1017.30 1016.74 1016.34 1016.06 1016.14 1016.02 1015.90 1015.94 1015.78 1015.74 1015.74 1015.82 1015.74 1015.86 1016.06 1015.98 1016.06 1016.18 1016.22 1016.26 1016.42 1016.66 1016.78 1016.74 1017.10 1017.34 1017.42 1017.50 1017.50 1017.50 1017.46 1017.46 1017.54 1017.62 1017.70 1017.82 1017.94 1018.02 1018.10 1018.14 1018.18 1018.14 1018.06 1017.98 1017.98 1017.98 1017.94 1017.90 1017.90 1017.86 1017.90 1017.94 1018.10 1018.30 1018.54 1018.66 1018.90 1018.94
1016.82 1015.82 1015.70 1015.78 1015.66 1016.02 1016.18 1016.06 1015.90 1015.98 1015.98 1015.94 1015.98 1016.06 1016.06 1016.10 1016.14 1016.14 1016.10 1016.38 1016.46 1016.46 1016.50 1016.46 1016.38 1016.54 1016.66 1016.90 1016.94 1017.26 1017.54 1017.66 1017.62 1017.50 1017.38 1017.46 1017.54 1017.62 1017.78 1017.86 1018.02 1018.06 1018.18 1018.18 1018.18 1018.22 1018.26 1018.18 1018.10 1018.10 1018.14 1018.14 1018.10 1018.10 1018.10 1018.14 1018.22 1018.42 1018.50 1018.74 1019.02 1019.22 1019.22
1015.46 1015.02 1015.14 1015.50 1015.62 1015.62 1015.98 1016.02 1015.98 1015.90 1015.94 1015.86 1016.06 1016.10 1016.10 1016.18 1016.26 1016.30 1016.38 1016.42 1016.58 1016.94 1016.86 1016.78 1016.78 1016.78 1016.90 1017.06 1017.02 1017.30 1017.50 1017.50 1017.62 1017.70 1017.74 1017.54 1017.54 1017.70 1017.78 1017.82 1018.06 1018.14 1018.26 1018.26 1018.26 1018.38 1018.42 1018.34 1018.34 1018.34 1018.38 1018.38 1018.34 1018.34 1018.34 1018.38 1018.46 1018.62 1018.74 1018.86 1019.14 1019.30 1019.42
1014.62 1014.82 1015.06 1015.46 1015.66 1015.82 1015.94 1016.14 1016.10 1016.14 1016.18 1016.02 1016.14 1016.22 1016.18 1016.22 1016.42 1016.42 1016.58 1016.82 1016.82 1016.74 1016.90 1017.06 1017.02 1016.90 1016.86 1017.10 1017.14 1017.22 1017.42 1017.62 1017.70 1017.78 1017.78 1017.86 1017.94 1017.98 1018.10 1018.18 1018.26 1018.26 1018.30 1018.30 1018.34 1018.42 1018.38 1018.38 1018.42 1018.46 1018.50 1018.58 1018.58 1018.58 1018.58 1018.62 1018.66 1018.78 1018.90 1018.98 1019.10 1019.30 1019.46
Wind_Speed
5 6 11 6 13 4 3 6 7 8 4 7 6 4 3 5 5 2 2 5 4 4 2 3 0 5 8 9 8 9 12 13 14 15 12 8 6 10 12 14 14 15 14 14 14 14 12 12 11 12 12 12 12 11 11 11 10 9 9 9 8 7 6
3 4 6 11 3 9 6 6 10 1 2 5 6 3 1 3 2 2 4 5 3 0 3 0 1 7 7 10 11 12 12 12 15 16 15 12 9 10 13 15 15 16 15 15 13 13 14 14 14 13 13 12 11 11 12 12 11 11 10 9 8 7 7
4 2 7 4 0 3 10 6 5 4 1 1 2 5 1 2 2 2 2 2 4 6 5 3 6 8 9 10 11 10 11 13 15 15 16 13 9 9 10 12 13 13 13 14 14 14 14 14 14 14 13 12 11 10 11 12 13 12 11 9 8 7 7
2 2 5 7 3 1 3 2 2 0 4 4 4 4 4 5 1 1 2 1 4 7 5 11 11 11 10 9 9 12 15 15 15 14 14 13 10 11 11 11 11 11 14 14 14 14 14 13 12 11 12 11 12 11 11 10 9 9 9 9 8 8 8
2 2 1 5 8 8 5 2 2 1 1 2 5 1 1 3 5 3 1 2 5 7 5 8 10 11 11 12 12 10 11 12 12 12 13 12 11 10 11 10 10 8 5 4 9 13 14 13 12 11 11 12 12 10 11 11 11 11 11 10 9 8 7
2 3 3 3 6 6 5 6 5 6 2 2 2 3 1 2 4 2 3 5 6 6 1 5 7 8 9 10 12 11 10 10 9 7 8 9 10 9 10 10 10 8 7 8 5 1 4 10 11 11 11 11 10 11 11 11 10 10 10 10 9 8 7
3 4 5 4 6 4 2 4 4 3 3 6 3 2 3 2 0 4 3 1 3 2 2 1 2 4 7 7 6 7 7 8 7 7 8 6 8 7 7 10 9 8 6 7 7 7 3 7 11 12 10 10 10 11 11 10 11 11 11 10 8 8 8
7 5 3 5 4 3 3 2 2 2 1 5 7 5 5 5 1 1 1 1 4 2 2 1 2 1 3 4 7 8 6 7 9 9 9 9 9 7 5 7 7 8 7 6 7 6 6 3 2 8 11 10 10 10 10 10 12 12 11 9 9 8 7
5 8 9 8 5 5 3 2 5 2 2 4 1 5 2 2 5 5 6 3 3 2 3 2 2 3 4 6 4 7 8 6 9 10 8 7 8 7 7 7 7 7 7 8 8 6 5 6 6 5 4 5 10 10 10 11 11 11 10 9 9 8 8
4 3 3 4 6 5 4 1 6 7 4 5 3 1 1 2 1 4 2 4 6 5 1 3 2 2 3 1 4 3 7 10 10 9 9 10 8 6 6 8 10 10 8 6 7 8 6 6 7 7 5 8 6 10 11 11 10 10 10 9 10 9 9
3 1 3 6 2 2 6 6 6 8 4 5 4 5 5 5 3 5 6 4 1 3 2 1 2 3 4 4 4 6 5 5 8 8 10 10 10 10 8 6 7 8 8 7 7 8 7 7 7 7 8 9 6 7 9 9 10 10 10 9 9 9 9
3 6 3 1 3 5 3 6 8 7 9 4 2 7 5 5 8 5 6 4 3 5 3 3 4 3 2 2 3 4 4 5 9 9 8 9 9 8 8 8 9 10 11 10 8 9 8 6 6 3 4 6 6 4 10 5 8 9 9 10 10 10 9
7 3 2 2 6 5 3 7 10 12 8 8 7 4 2 3 7 9 6 6 3 2 2 3 5 5 4 3 2 1 3 4 5 7 9 10 10 9 9 8 8 9 11 11 10 10 10 9 7 6 6 5 6 9 7 9 8 10 10 10 10 10 9
4 7 6 5 6 5 10 10 10 9 9 8 7 4 4 2 4 4 2 5 2 2 1 3 3 3 4 4 4 3 4 4 5 6 7 8 8 8 9 9 9 8 8 8 9 9 10 11 10 9 8 8 8 9 8 9 6 9 8 10 10 9 9
4 6 4 6 9 8 7 11 14 13 9 8 10 8 10 7 1 4 3 6 4 5 2 4 3 6 6 6 5 4 3 4 5 6 6 6 6 6 5 4 6 8 10 9 8 8 9 11 12 11 10 10 9 8 7 9 12 10 7 9 6 5 4
5 3 3 4 2 4 8 12 15 15 14 11 10 9 7 3 4 4 3 5 5 4 4 6 6 8 8 6 5 4 4 4 4 5 7 6 6 7 7 6 3 4 7 9 10 11 10 11 11 10 10 11 9 10 6 3 2 2 4 6 9 8 8
2 9 3 2 3 5 6 8 7 6 4 2 3 9 13 10 4 2 3 1 3 0 1 7 8 10 9 7 5 5 4 3 3 4 5 5 5 4 4 4 4 3 6 7 3 1 4 7 9 9 11 11 11 7 6 4 5 4 7 2 8 8 8
3 5 4 2 3 2 2 3 0 3 2 7 10 7 11 14 10 3 0 3 4 5 7 10 10 9 6 5 5 4 3 3 4 4 3 4 5 6 6 6 4 3 3 5 7 5 2 2 3 2 1 2 4 6 7 6 6 6 3 8 2 8 8
3 0 4 1 1 3 4 3 1 3 1 8 12 12 14 12 10 10 10 10 11 8 7 10 11 10 9 9 9 7 6 5 5 5 4 3 2 4 5 5 4 4 3 7 8 9 9 8 6 5 5 5 4 5 4 5 4 7 7 3 7 4 8
2 4 3 1 3 3 3 5 2 3 3 4 3 5 11 10 9 5 8 9 8 9 9 8 7 9 9 10 9 8 7 6 4 5 4 4 4 4 4 3 5 4 2 5 8 8 8 9 7 6 7 6 6 7 6 6 5 5 6 4 4 5 5
3 2 4 3 3 2 3 2 4 4 2 5 2 1 2 4 6 5 6 9 9 9 9 8 6 6 7 10 8 9 9 8 7 6 4 4 6 5 5 5 6 6 4 2 3 4 5 5 7 8 6 6 7 7 7 7 7 6 8 8 7 6 4
4 6 3 2 2 1 4 1 3 1 2 3 3 4 1 4 5 1 6 5 6 7 6 5 4 6 9 9 5 6 8 7 6 6 5 6 5 5 5 5 5 4 3 4 5 6 8 7 7 6 5 4 6 8 7 6 7 6 6 7 6 5 4
3 4 5 2 4 4 3 5 6 7 3 3 1 2 2 3 1 3 4 4 2 3 3 0 1 5 4 5 6 2 3 3 4 3 4 4 4 3 3 3 4 4 4 5 7 6 9 9 5 6 7 7 7 6 6 6 5 6 6 6 4 3 3
1 4 3 2 3 1 1 5 5 7 7 3 4 1 2 3 4 4 2 4 4 4 2 2 4 5 3 6 4 3 3 2 2 3 3 3 4 4 3 4 3 3 3 6 6 4 5 6 5 6 6 4 5 6 6 6 5 5 5 6 5 4 4
2 5 0 2 2 3 3 4 8 8 4 2 3 3 3 3 5 6 3 5 4 3 3 1 2 3 1 4 7 7 4 4 3 3 4 5 5 5 4 4 3 4 4 5 6 5 4 4 5 5 5 7 7 6 7 6 3 4 5 6 6 5 4
2 1 4 2 3 4 3 5 5 4 1 2 3 4 2 3 4 4 3 2 1 1 3 2 1 1 2 9 7 6 5 4 3 4 5 6 5 5 5 5 4 5 6 7 6 7 6 7 6 5 6 8 7 6 6 8 7 6 6 5 5 6 7
2 3 4 1 1 1 2 9 2 2 1 3 2 1 2 1 2 4 1 3 2 2 2 2 4 7 8 9 6 3 4 5 5 5 5 5 5 5 4 3 3 4 5 6 6 6 6 6 5 6 8 8 7 7 8 8 6 5 5 6 7 7 7
2 2 2 2 2 2 4 2 2 2 1 1 4 3 1 2 1 2 3 2 2 2 4 6 4 5 9 7 6 4 4 4 3 5 5 5 5 6 5 5 4 4 5 5 6 6 5 5 4 3 7 8 7 9 8 6 6 6 6 6 7 7 7
1 2 3 2 3 3 3 1 1 0 2 2 4 3 3 3 2 1 2 2 2 4 6 5 6 7 6 9 7 4 3 4 3 4 4 5 5 5 5 4 3 4 5 5 6 6 5 6 5 4 4 8 9 9 6 5 5 6 6 6 7 7 7
1 1 2 0 2 2 3 3 1 2 0 2 0 3 2 1 1 0 2 2 2 4 4 9 4 5 6 9 8 9 8 5 4 4 5 5 5 5 5 5 4 4 4 5 6 6 6 6 6 5 5 5 9 5 4 5 4 5 5 6 6 7 6
4 0 3 3 0 1 2 2 3 3 2 1 1 2 1 1 1 2 2 3 3 3 3 4 8 7 6 6 3 3 8 7 5 5 5 4 4 5 5 3 4 4 4 5 5 5 6 5 5 5 6 6 5 4 4 4 4 3 4 5 6 6 6
1 2 1 1 1 0 1 0 1 2 2 3 3 2 1 2 3 3 3 3 4 3 5 4 8 6 5 6 5 5 5 5 5 5 6 6 6 5 4 4 4 4 4 4 4 4 4 3 4 4 5 5 4 5 5 5 5 5 5 4 4 5 5
0 1 1 1 2 4 4 3 2 1 1 2 3 3 3 4 6 5 5 4 3 3 5 4 6 7 4 4 6 6 4 4 4 5 6 5 6 5 5 3 4 5 4 4 3 4 2 2 3 4 3 3 3 4 4 4 4 6 5 4 5 5 4
1 4 4 4 3 1 0 0 1 3 1 3 3 3 4 4 4 4 6 6 5 6 4 4 5 7 5 4 6 6 4 5 5 6 6 6 6 4 3 3 4 4 4 4 4 4 2 2 3 3 3 2 3 3 4 4 4 5 4 4 4 5 4
5 7 4 3 2 3 2 3 2 3 2 3 4 3 3 3 3 3 7 7 6 6 4 3 5 5 6 5 6 6 4 3 2 4 7 7 5 5 4 4 3 4 3 3 4 4 2 2 3 2 2 1 2 2 3 3 4 4 4 3 3 4 4
1 3 6 5 3 4 2 2 3 3 3 5 5 3 3 4 4 4 5 5 7 5 4 5 3 4 5 4 6 7 4 4 4 3 2 4 5 5 4 5 4 4 3 3 4 3 2 3 3 3 2 1 1 1 1 2 3 4 3 3 3 3 3
4 3 4 3 2 4 4 3 3 3 1 3 5 4 4 5 4 4 7 5 4 6 6 5 4 3 5 4 4 6 4 3 3 4 4 3 4 4 3 4 4 4 3 2 2 2 2 3 3 3 4 2 0 1 2 3 3 4 3 3 3 3 2
Wind_Direction
170 171 152 163 144 143 205 103 234 225 180 115 104 59 27 90 58 232 167 300 293 288 276 263 210 173 192 181 179 178 182 179 178 182 185 185 189 182 178 178 179 180 178 180 179 179 180 179 176 179 177 177 178 176 179 181 182 181 187 189 188 188 186
3 177 131 151 273 136 103 192 231 190 94 96 113 132 329 47 139 256 150 230 287 31 272 315 229 179 190 183 185 187 182 178 183 186 185 182 184 189 186 181 179 178 178 179 180 182 179 178 180 181 179 178 179 178 179 179 180 184 189 187 188 187 187
264 40 93 62 251 167 151 198 177 117 315 194 17 99 88 169 259 245 260 248 256 200 248 167 214 198 192 193 187 181 184 185 189 187 183 177 172 178 186 183 179 178 178 180 180 182 183 182 182 180 178 176 178 181 181 181 184 187 186 186 186 188 187
287 48 97 178 257 305 98 158 136 203 105 153 145 209 166 117 204 64 292 63 243 210 216 186 190 197 191 184 185 193 190 189 187 186 179 171 169 175 180 177 178 180 181 180 179 180 180 182 183 180 176 174 179 180 180 185 185 181 181 186 185 188 191
70 142 2 178 177 164 148 68 346 306 3 212 121 160 129 159 161 180 180 312 275 258 207 166 187 187 189 180 189 195 195 192 189 184 172 168 164 167 169 164 157 142 130 174 191 183 181 181 180 177 175 179 180 178 181 181 180 181 185 188 184 189 185
350 225 237 191 185 163 158 160 191 172 121 151 141 245 20 91 98 198 135 239 266 273 212 178 173 189 184 195 182 184 188 185 179 170 159 160 154 159 154 155 159 158 140 126 96 330 208 176 179 178 182 178 175 180 181 181 181 184 184 188 188 185 185
240 260 290 261 203 104 147 161 249 170 135 112 100 125 247 42 40 110 145 128 273 259 278 191 159 171 195 188 179 179 174 167 153 139 142 147 141 138 141 141 157 159 150 130 134 130 138 205 184 179 179 180 181 183 179 181 181 189 188 187 185 182 184
299 310 292 31 49 94 55 353 65 102 203 179 169 177 180 142 166 65 2 245 251 283 352 342 130 131 161 165 173 167 159 141 138 135 132 138 121 108 99 113 137 155 144 130 128 131 126 104 224 195 182 183 184 183 182 181 186 187 187 185 181 182 185
339 344 349 3 358 61 110 296 321 284 230 54 91 104 39 101 213 162 126 226 285 276 343 37 83 100 135 166 178 160 148 146 145 141 135 135 132 113 117 121 129 132 141 151 151 130 106 99 82 28 330 211 183 184 183 186 189 185 184 180 179 182 185
63 8 2 337 317 307 295 33 331 353 360 139 114 88 76 143 262 114 156 248 255 278 333 44 76 105 78 81 157 165 161 155 152 152 148 143 149 131 129 136 143 154 163 151 134 132 128 127 135 139 130 317 268 191 189 189 185 182 183 179 180 180 184
165 202 218 257 212 350 45 318 359 350 359 355 95 108 104 198 211 187 231 190 273 301 279 126 120 148 151 134 146 156 156 158 147 155 157 154 155 148 155 163 154 149 150 163 154 146 142 142 154 160 148 158 287 274 207 191 186 181 179 177 181 181 185
191 195 185 46 78 97 36 27 360 359 12 357 112 130 205 171 106 236 260 197 154 252 203 163 154 149 129 132 153 149 148 158 155 161 157 152 152 156 156 158 159 159 164 172 167 157 144 141 138 110 98 135 151 332 311 249 189 181 179 179 180 183 184
310 308 10 9 82 76 74 42 29 20 353 29 54 335 285 169 152 206 245 165 168 280 200 157 174 169 158 144 135 117 125 110 118 138 157 168 166 163 161 165 166 163 169 174 173 169 163 142 138 144 138 152 191 173 187 297 284 194 179 176 180 182 186
353 349 29 34 58 37 38 23 25 21 20 32 36 29 35 27 294 270 147 132 110 292 47 125 148 132 113 95 89 87 104 120 127 137 153 166 174 171 166 168 169 169 169 172 174 175 166 163 163 161 169 180 184 193 185 173 250 268 182 179 175 180 185
339 333 340 69 58 47 41 10 16 14 12 33 33 33 9 358 344 10 68 99 42 347 38 78 65 81 91 88 89 91 86 99 122 131 134 144 164 175 172 167 174 174 167 167 166 172 182 182 176 168 175 178 181 199 196 183 194 225 241 173 158 135 98
315 301 333 309 42 41 41 19 8 4 5 19 13 32 347 9 331 336 352 38 12 345 33 67 59 68 69 85 95 86 91 97 110 129 142 145 152 161 175 181 164 167 174 170 173 174 183 186 179 175 174 177 175 195 185 185 59 323 237 148 138 136 137
280 281 341 327 37 34 17 350 348 349 0 44 62 39 17 8 295 60 83 265 250 266 342 84 53 69 69 58 56 80 70 62 99 119 132 130 111 102 119 152 159 171 165 159 170 212 189 179 183 186 179 172 186 168 118 144 121 76 324 219 148 149 155
220 294 335 356 53 55 250 229 270 7 9 51 55 36 7 360 14 36 280 91 62 59 65 80 73 58 43 50 38 25 67 85 57 69 106 114 106 98 85 72 70 71 97 108 127 130 110 92 126 93 344 250 159 137 140 137 137 132 110 303 237 151 149
193 254 9 32 315 231 241 288 314 349 76 99 93 64 37 355 11 36 51 65 77 76 79 89 90 89 76 57 47 41 48 79 95 92 80 85 98 100 81 90 97 79 93 136 142 147 154 163 168 150 162 192 168 127 120 135 157 149 141 170 284 218 150
44 61 65 136 242 239 310 306 327 324 83 124 103 49 45 7 358 20 46 50 63 83 82 79 88 101 104 82 53 34 30 40 72 100 86 81 83 94 131 129 83 68 71 174 164 159 151 150 157 160 164 164 155 139 130 141 162 161 138 147 215 263 156
151 136 135 205 312 326 342 13 27 27 358 328 36 334 317 337 328 25 53 47 44 54 46 36 360 6 46 59 31 24 19 18 16 21 51 87 90 95 99 110 130 156 181 65 60 92 101 116 136 143 161 166 156 147 148 157 166 159 160 173 188 226 156
112 129 59 11 24 192 271 237 282 285 256 248 236 130 320 314 345 15 100 109 107 94 79 72 51 64 55 28 360 14 25 20 34 40 40 43 65 85 99 117 133 149 135 87 70 92 106 111 136 153 161 173 165 153 153 162 168 162 163 173 182 189 158
64 64 124 185 158 238 217 283 299 310 302 291 193 101 317 263 234 281 138 104 70 92 89 101 196 90 122 200 207 178 67 15 8 23 32 57 69 78 99 126 140 136 97 93 103 110 134 139 126 116 127 141 152 151 149 142 145 155 165 160 158 155 147
88 132 89 187 202 187 280 278 303 311 314 327 77 23 276 245 189 238 179 136 166 166 165 164 103 126 142 229 191 113 98 82 49 31 39 79 88 84 69 44 61 74 89 106 100 104 110 92 101 115 128 121 99 96 101 106 151 157 128 112 107 111 127
108 96 199 330 316 281 270 276 305 313 303 66 96 190 231 218 169 206 211 171 185 151 125 147 121 241 209 134 115 108 97 85 61 55 59 55 72 96 89 85 72 47 50 65 83 82 59 66 75 84 96 96 91 98 120 140 129 74 91 106 114 116 110
96 152 115 197 244 239 258 288 290 277 7 131 214 235 210 199 183 193 211 242 300 113 154 155 160 170 119 104 105 116 120 113 94 80 72 79 80 80 83 75 60 63 75 76 73 70 63 66 66 74 83 91 100 100 89 78 75 80 86 96 88 81 83
56 42 73 12 167 261 297 309 336 35 122 227 212 216 306 224 212 134 165 212 239 133 104 97 123 122 112 112 118 118 109 104 103 97 85 72 65 71 64 56 50 63 64 63 65 61 65 70 79 98 98 91 89 87 83 84 88 89 92 96 100 100 97
138 102 138 191 209 239 308 42 143 283 221 209 204 149 219 279 225 151 152 168 164 178 153 138 111 107 113 106 101 89 74 70 69 78 77 75 78 78 68 68 71 60 66 64 65 56 53 64 73 86 105 103 99 95 93 101 110 105 85 82 88 89 91
118 193 210 241 222 230 284 36 125 207 295 254 206 181 161 184 260 156 138 155 141 152 138 125 133 115 115 115 110 98 78 79 80 85 82 101 105 96 90 72 64 66 78 82 77 63 46 47 38 38 68 104 100 97 100 107 101 101 105 100 100 100 100
219 73 126 146 16 7 359 7 36 128 32 346 85 140 149 272 250 225 132 96 126 129 146 130 115 122 135 126 129 127 111 108 107 107 99 92 91 85 81 75 67 70 65 69 76 71 47 34 41 41 39 71 97 96 95 97 102 102 109 112 106 101 99
59 259 314 42 30 28 37 43 32 36 32 359 19 48 41 341 20 74 81 107 115 135 127 132 126 119 104 102 104 103 111 123 126 121 112 92 86 94 91 75 81 71 67 68 65 63 54 22 37 39 51 47 57 68 75 82 90 95 104 108 104 102 103
104 211 229 298 315 114 8 62 94 63 11 10 6 10 14 70 84 95 95 90 88 98 113 131 121 110 112 125 127 111 109 123 125 125 119 114 95 77 85 86 92 84 81 86 79 74 60 22 33 40 40 37 37 51 54 59 61 63 62 70 88 97 91
319 360 338 297 46 35 16 14 50 90 109 57 15 10 47 81 91 84 60 53 73 97 118 106 110 102 80 101 110 109 105 109 114 120 116 109 112 112 102 94 101 115 109 92 96 95 86 50 61 53 42 27 28 50 51 56 74 76 72 70 71 65 71
297 184 199 160 111 219 333 348 195 122 110 101 70 48 55 71 98 98 89 62 58 76 75 97 105 103 99 103 112 109 122 135 140 127 117 120 118 116 123 115 114 110 116 128 125 120 137 118 94 80 56 26 20 27 45 44 59 78 84 84 83 87 84
212 233 215 174 148 131 206 177 162 139 146 109 95 81 85 57 57 84 101 93 72 69 55 51 94 108 115 121 108 103 103 113 110 128 131 129 129 131 124 104 96 108 122 126 118 114 128 121 112 112 108 104 70 36 47 58 71 78 83 83 74 86 100
289 167 172 174 149 152 158 183 153 145 154 120 108 102 89 93 92 82 82 101 115 95 70 49 51 107 107 123 123 124 121 119 118 118 123 133 141 143 140 137 143 131 127 123 124 135 136 119 117 117 113 121 127 112 96 87 92 98 98 104 108 93 99
169 183 149 172 157 96 92 115 92 96 104 109 113 115 116 104 88 94 100 89 87 111 104 81 46 72 118 115 120 130 132 126 137 144 140 142 143 140 143 131 142 154 169 158 138 127 122 123 126 127 129 137 56 99 103 110 110 108 114 118 119 110 116